Starlink 1570

operational
NORAD ID: 46059 Int'l Des: 2020-055 Owner: SPXS Country: US Constellation: starlink
LEOCIRCULARSTARLINK_TYPE

关于 Starlink 1570

正在加载描述...

实时位置

正在加载3D地球...

即将过境

高度历史

Altitude vs Time

uPlot chart will show altitude changes over time

两行轨道根数

1 46059U 20055AJ 25259.16373654 .00001697 00000-0 13274-3 0 9997
2 46059 53.0562 180.0972 0001513 92.9831 267.1331 15.06409807282685
Epoch: Sep 16, 2025 • Age: 11 hours

当前状态

高度 566.4 km
速度 7.58 km/s
星下点 -52.43°S, 114.91°W
发射日期 Aug 7, 2020
运行时间 5.1 years
类型 internet

技术详情

分类 Payload
质量 260.00 kg
干质量 248.00 kg
总质量 260.00 kg
长度 0.20 m
直径 2.80 m
跨度 9.00 m
形状 Box + pan
制造商 SPXS
平台类型 Starlink
阶段状态 In Orbit
所有者/国家 SPXS/US

大型星座

Loading constellations...